"Pseudo-MPEC" for C728VRZ

Created 2023 Sep 22 7:22:07 UT using Find_Orb

Click here for an explanation of pseudo-MPECs

 
 Astrometry: 
     C728VRZ*0C2023 09 07.40246000 10 29.348-15 00 32.40   ~9H7b 18.81GVNEOCPG96
     C728VRZ 0C2023 09 07.40760100 10 17.476-15 00 45.40   ~9H7b       VNEOCPG96
     C728VRZ 0C2023 09 07.41272600 10 05.797-15 00 58.14   ~9H7b 18.92GVNEOCPG96
     C728VRZ 0C2023 09 07.41785800 09 54.194-15 01 10.52   ~9H7b       VNEOCPG96

Station data:
(G96) Mt. Lemmon Survey  (N32.442751 W110.788720)  US/Arizona.  Observer A.
   Zooniverse. 1.5-m reflector + 10K CCD.

Orbital elements:  C728VRZ
   Perihelion 2023 Nov 5.45333 +/- 80 TT = 10:52:47 (JD 2460253.95333)
Epoch 2023 Sep  7.0 TT = JDT 2460194.5   Earth MOID: 0.0294      AutoNEOCP
M 257.61180576 +/- 110              (J2000 ecliptic)
n   1.72216076 +/- 0.738            Peri.  163.02645 +/- 52
a   0.68931900 +/- 0.197            Node   345.67846 +/- 59
e   0.8032816 +/- 0.229             Incl.   55.39867 +/- 51
P   0.57/209.04d           H 23.73  G  0.15   U 12.6  SR
q 0.13560172 +/- 0.267    Q 1.24303628 +/- 1.57
From 4 observations 2023 Sept. 7 (22.2 min); mean residual 0".73
Residuals in arcseconds: 
230907 G96  1.1+  .12+    230907 G96  .87-  .15-    
230907 G96  1.2-  .10-    230907 G96  .97+  .14+    

Ephemerides (geocentric):
Date (UTC) HH   RA             Dec           delta  r     elong  mag " sig PA
---- --------  ------------   ------------  ------ ------ -----  --- --------
2023 09 22 07  16 18 11.710   +03 15 30.49  .19356 .94108  65.7 23.8  39d  79
2023 09 22 08  16 17 58.875   +03 16 21.63  .19419 .94063  65.7 23.8  39d  79
2023 09 22 09  16 17 46.114   +03 17 12.43  .19482 .94017  65.6 23.9  39d  79
2023 09 22 10  16 17 33.428   +03 18 02.89  .19545 .93972  65.5 23.9  39d  79
2023 09 22 11  16 17 20.816   +03 18 53.02  .19607 .93926  65.4 23.9  39d  79
2023 09 22 12  16 17 08.277   +03 19 42.82  .19670 .93881  65.3 23.9  39d  79
2023 09 22 13  16 16 55.810   +03 20 32.29  .19733 .93836  65.2 23.9  39d  79
2023 09 22 14  16 16 43.415   +03 21 21.43  .19796 .93790  65.1 23.9  39d  79
2023 09 22 15  16 16 31.090   +03 22 10.26  .19859 .93744  65.0 23.9  39d  79
2023 09 22 16  16 16 18.836   +03 22 58.77  .19922 .93699  65.0 23.9  39d  79
2023 09 22 17  16 16 06.651   +03 23 46.96  .19985 .93653  64.9 23.9  39d  79
2023 09 22 18  16 15 54.535   +03 24 34.83  .20047 .93608  64.8 23.9  39d  79
2023 09 22 19  16 15 42.487   +03 25 22.40  .20110 .93562  64.7 23.9  39d  79
2023 09 22 20  16 15 30.506   +03 26 09.66  .20173 .93516  64.6 23.9  39d  79
2023 09 22 21  16 15 18.592   +03 26 56.62  .20236 .93470  64.5 24.0  39d  79
2023 09 22 22  16 15 06.744   +03 27 43.28  .20299 .93424  64.4 24.0  39d  79
2023 09 22 23  16 14 54.961   +03 28 29.64  .20362 .93378  64.4 24.0  39d  79
2023 09 23 00  16 14 43.243   +03 29 15.70  .20425 .93332  64.3 24.0  39d  79
2023 09 23 01  16 14 31.589   +03 30 01.47  .20488 .93286  64.2 24.0  39d  79
2023 09 23 02  16 14 19.999   +03 30 46.94  .20551 .93240  64.1 24.0  39d  79
2023 09 23 03  16 14 08.471   +03 31 32.13  .20614 .93194  64.0 24.0  39d  79
2023 09 23 04  16 13 57.006   +03 32 17.04  .20677 .93148  63.9 24.0  39d  79
2023 09 23 05  16 13 45.602   +03 33 01.66  .20740 .93102  63.8 24.0  39d  79
2023 09 23 06  16 13 34.260   +03 33 46.00  .20803 .93056  63.8 24.0  39d  79
2023 09 23 07  16 13 22.977   +03 34 30.06  .20866 .93010  63.7 24.0  39d  79
2023 09 23 08  16 13 11.755   +03 35 13.85  .20929 .92963  63.6 24.0  39d  79
2023 09 23 09  16 13 00.592   +03 35 57.36  .20992 .92917  63.5 24.1  39d  79
2023 09 23 10  16 12 49.487   +03 36 40.60  .21055 .92871  63.4 24.1  39d  79
2023 09 23 11  16 12 38.441   +03 37 23.58  .21118 .92824  63.4 24.1  39d  79
2023 09 23 12  16 12 27.452   +03 38 06.28  .21181 .92778  63.3 24.1  39d  79
2023 09 23 13  16 12 16.520   +03 38 48.73  .21244 .92731  63.2 24.1  39d  79
2023 09 23 14  16 12 05.645   +03 39 30.91  .21307 .92685  63.1 24.1  39d  79
2023 09 23 15  16 11 54.825   +03 40 12.83  .21370 .92638  63.0 24.1  39d  79
2023 09 23 16  16 11 44.061   +03 40 54.50  .21433 .92591  62.9 24.1  39d  79
2023 09 23 17  16 11 33.352   +03 41 35.91  .21496 .92545  62.9 24.1  39d  79
2023 09 23 18  16 11 22.696   +03 42 17.07  .21559 .92498  62.8 24.1  39d  79
2023 09 23 19  16 11 12.095   +03 42 57.98  .21622 .92451  62.7 24.1  39d  79
2023 09 23 20  16 11 01.547   +03 43 38.64  .21686 .92404  62.6 24.1  39d  79
2023 09 23 21  16 10 51.052   +03 44 19.05  .21749 .92357  62.6 24.2  39d  79
2023 09 23 22  16 10 40.609   +03 44 59.22  .21812 .92310  62.5 24.2  39d  79
2023 09 23 23  16 10 30.218   +03 45 39.14  .21875 .92263  62.4 24.2  39d  79
2023 09 24 00  16 10 19.878   +03 46 18.83  .21938 .92216  62.3 24.2  39d  79
2023 09 24 01  16 10 09.589   +03 46 58.27  .22001 .92169  62.2 24.2  39d  79
2023 09 24 02  16 09 59.350   +03 47 37.48  .22064 .92122  62.2 24.2  40d  79
2023 09 24 03  16 09 49.161   +03 48 16.46  .22127 .92075  62.1 24.2  40d  79
2023 09 24 04  16 09 39.022   +03 48 55.20  .22190 .92028  62.0 24.2  40d  79
2023 09 24 05  16 09 28.931   +03 49 33.72  .22254 .91981  61.9 24.2  40d  79
2023 09 24 06  16 09 18.889   +03 50 12.00  .22317 .91933  61.8 24.2  40d  79